FW2952 Weather Reports


Display with metric or nautical units.
time (UTC)temp
F
wind
direction
speed
MPH
gust
MPH
rain 1hr
in
rain 24hr
in
rain mn
in
humidity
%
barometer
mb
20260509234853 41 299 3.0 9.0 0.00 0.00 0.00 69 1008.2
20260509233348 41 222 2.0 7.0 0.00 0.00 0.00 67 1008.1
20260509231827 42 283 4.0 13.0 0.00 0.00 0.00 65 1007.7
20260509230324 42 288 3.0 9.0 0.00 0.00 0.00 63 1007.6
20260509224817 42 251 3.0 7.0 0.00 0.00 0.00 63 1007.5
20260509223313 42 240 2.0 7.0 0.00 0.00 0.00 66 1007.4
20260509221826 43 261 3.0 7.0 0.00 0.00 0.00 64 1007.2
20260509220324 44 281 3.0 8.0 0.00 0.00 0.00 62 1006.9
20260509214916 45 219 3.0 6.0 0.00 0.00 0.00 60 1006.8
20260509213329 46 245 3.0 6.0 0.00 0.00 0.00 60 1006.6
20260509211842 45 352 1.0 5.0 0.00 0.00 0.00 66 1006.4
20260509210316 44 335 2.0 6.0 0.00 0.00 0.00 66 1006.3
20260509204852 43 288 2.0 5.0 0.00 0.00 0.00 67 1006.1
20260509203327 42 253 1.0 6.0 0.00 0.00 0.00 70 1006.0
20260509201825 42 279 3.0 7.0 0.00 0.00 0.00 71 1006.0
20260509200341 43 5 2.0 7.0 0.00 0.00 0.00 69 1005.6
20260509194815 44 24 5.0 9.0 0.00 0.00 0.00 64 1005.5
20260509193330 45 352 3.0 7.0 0.00 0.00 0.00 61 1005.1
20260509191827 46 8 3.0 10.0 0.00 0.00 0.00 59 1004.8
20260509190346 46 305 6.0 13.0 0.00 0.00 0.00 58 1004.5
20260509184813 45 316 3.0 10.0 0.00 0.00 0.00 62 1004.3
20260509183314 45 336 3.0 9.0 0.00 0.00 0.00 63 1004.0
20260509181851 45 330 3.0 11.0 0.00 0.00 0.00 61 1003.7
20260509180313 45 8 4.0 11.0 0.00 0.00 0.00 64 1003.5
20260509174825 45 50 3.0 10.0 0.00 0.00 0.00 65 1003.0
20260509173321 44 348 4.0 9.0 0.00 0.00 0.00 68 1002.8
20260509171841 45 293 5.0 10.0 0.00 0.00 0.00 65 1002.4
20260509170335 45 260 2.0 10.0 0.00 0.00 0.00 64 1001.9
20260509164825 45 302 6.0 11.0 0.00 0.00 0.00 63 1001.7
20260509163319 45 9 5.0 10.0 0.00 0.00 0.00 61 1001.5
20260509161834 45 320 4.0 16.0 0.00 0.00 0.00 62 1001.2
20260509160313 45 336 3.0 14.0 0.00 0.00 0.00 62 1001.0
20260509154841 45 194 4.0 8.0 0.00 0.00 0.00 60 1000.8
20260509153320 46 330 5.0 11.0 0.00 0.00 0.00 56 1000.4
20260509151816 46 224 4.0 13.0 0.00 0.00 0.00 54 1000.0
20260509150336 45 147 6.0 13.0 0.00 0.00 0.00 53 999.8
20260509144844 45 231 3.0 7.0 0.00 0.00 0.00 55 999.6
20260509143321 43 243 6.0 11.0 0.00 0.00 0.00 58 999.4
20260509141825 42 229 1.0 7.0 0.00 0.00 0.00 62 999.2
20260509140322 41 262 3.0 8.0 0.00 0.00 0.00 61 999.1
20260509134838 41 303 3.0 9.0 0.00 0.00 0.00 64 998.9
20260509133315 41 344 3.0 8.0 0.00 0.00 0.00 65 998.8
20260509131834 41 274 4.0 8.0 0.00 0.00 0.00 67 998.7
20260509130313 42 262 3.0 6.0 0.00 0.00 0.00 68 998.5
20260509124821 42 243 2.0 8.0 0.00 0.00 0.00 69 998.3
20260509123321 43 215 2.0 7.0 0.00 0.00 0.00 68 998.1
20260509121818 43 249 1.0 7.0 0.00 0.00 0.00 66 998.0
20260509120320 43 274 1.0 7.0 0.00 0.00 0.00 65 998.0
20260509114851 42 328 2.0 4.0 0.00 0.00 0.00 66 998.0
20260509113327 43 259 2.0 5.0 0.00 0.00 0.00 64 998.0
20260509111831 42 245 1.0 5.0 0.00 0.00 0.00 64 997.7
20260509110326 42 262 1.0 5.0 0.00 0.00 0.00 63 997.6
20260509104817 42 269 1.0 5.0 0.00 0.00 0.00 62 997.5
20260509103337 42 291 1.0 5.0 0.00 0.00 0.00 63 997.4
20260509101817 43 259 1.0 4.0 0.00 0.00 0.00 63 997.3
20260509100315 44 262 0.0 3.0 0.00 0.00 0.00 62 997.3
20260509094813 44 245 1.0 4.0 0.00 0.00 0.00 60 997.3
20260509093332 45 256 1.0 2.0 0.00 0.00 0.00 59 997.1
20260509091850 46 250 0.0 3.0 0.00 0.00 0.00 57 997.2
20260509090330 47 223 1.0 2.0 0.00 0.00 0.00 57 997.4
20260509084819 47 240 0.0 5.0 0.00 0.00 0.00 58 997.4
20260509083320 47 322 1.0 3.0 0.00 0.00 0.00 55 997.1
20260509081818 47 328 0.0 3.0 0.00 0.00 0.00 55 997.2
20260509080317 47 270 0.0 2.0 0.00 0.00 0.00 56 997.1
20260509074829 46 239 0.0 1.0 0.00 0.00 0.00 57 997.2
20260509073347 46 315 0.0 1.0 0.00 0.00 0.00 57 997.5
20260509071828 47 348 0.0 0.0 0.00 0.00 0.00 56 997.6
20260509070325 47 348 0.0 2.0 0.00 0.00 0.00 55 997.7
20260509064843 47 305 1.0 2.0 0.00 0.00 0.00 55 997.9
20260509063320 46 148 2.0 5.0 0.00 0.00 0.00 55 997.8
20260509061822 46 118 1.0 2.0 0.00 0.00 0.00 55 997.9
20260509060319 46 138 1.0 2.0 0.00 0.00 0.00 54 998.1
20260509054815 47 118 1.0 3.0 0.00 0.00 0.00 54 998.1
20260509053332 47 146 1.0 6.0 0.00 0.00 0.00 53 998.1
20260509051853 47 123 3.0 5.0 0.00 0.00 0.00 53 998.3
20260509050314 47 189 1.0 6.0 0.00 0.00 0.00 53 998.6
20260509044823 46 132 2.0 4.0 0.00 0.00 0.00 57 998.8
20260509043322 46 169 1.0 5.0 0.00 0.00 0.00 57 998.9
20260509041841 47 116 1.0 3.0 0.00 0.00 0.00 57 999.4
20260509040323 47 136 1.0 3.0 0.00 0.00 0.00 58 999.5
20260509034818 47 110 1.0 2.0 0.00 0.00 0.00 57 999.6
20260509033340 47 75 0.0 3.0 0.00 0.00 0.00 58 999.9
20260509031846 48 84 0.0 2.0 0.00 0.00 0.00 60 1000.1
20260509030325 49 160 0.0 0.0 0.00 0.00 0.00 55 1000.1
20260509024822 49 160 0.0 0.0 0.00 0.00 0.00 52 1000.4
20260509023321 49 160 0.0 1.0 0.00 0.00 0.00 51 1000.6
20260509021841 50 124 0.0 1.0 0.00 0.00 0.00 52 1001.0
20260509020317 50 156 0.0 0.0 0.00 0.00 0.00 48 1000.9
20260509014834 50 155 0.0 0.0 0.00 0.00 0.00 48 1000.9
20260509013317 51 155 0.0 0.0 0.00 0.00 0.00 45 1000.8
20260509011816 51 155 0.0 0.0 0.00 0.00 0.00 42 1000.8
20260509010318 51 155 0.0 0.0 0.00 0.00 0.00 43 1000.9
20260509004829 52 155 0.0 0.0 0.00 0.00 0.00 43 1000.9
20260509003344 52 155 0.0 1.0 0.00 0.00 0.00 43 1001.0
20260509001825 52 139 0.0 1.0 0.00 0.00 0.00 42 1001.0
20260509000327 52 123 0.0 1.0 0.00 0.00 0.00 42 1001.1